N6AMQ-1 Weather Reports


Display with metric or nautical units.
time (UTC)temp
F
wind
direction
speed
MPH
gust
MPH
rain 1hr
in
rain 24hr
in
rain mn
in
humidity
%
barometer
mb
20260503210505 65 292 2.0 2.0 0.00 0.00 0.00 61 1012.9
20260503210006 65 225 3.0 3.0 0.00 0.00 0.00 62 1012.9
20260503205607 65 248 1.0 2.0 0.00 0.00 0.00 62 1012.9
20260503205505 65 270 3.0 0.0 0.00 0.00 0.00 62 1012.9
20260503205005 65 248 2.0 3.0 0.00 0.00 0.00 61 1012.9
20260503204505 65 225 2.0 0.0 0.00 0.00 0.00 61 1012.9
20260503204005 65 180 2.0 1.0 0.00 0.00 0.00 62 1012.9
20260503203607 64 270 1.0 1.0 0.00 0.00 0.00 63 1012.9
20260503203505 64 202 3.0 3.0 0.00 0.00 0.00 63 1012.9
20260503203005 64 270 1.0 4.0 0.00 0.00 0.00 61 1012.9
20260503202505 64 292 5.0 4.0 0.00 0.00 0.00 61 1012.9
20260503202005 64 202 1.0 0.0 0.00 0.00 0.00 63 1012.9
20260503201608 64 248 3.0 3.0 0.00 0.00 0.00 62 1012.9
20260503201505 64 292 1.0 3.0 0.00 0.00 0.00 61 1012.9
20260503201005 64 90 1.0 1.0 0.00 0.00 0.00 62 1012.9
20260503200005 64 270 1.0 3.0 0.00 0.00 0.00 61 1012.9
20260503195607 64 22 0.0 0.0 0.00 0.00 0.00 60 1012.9
20260503195505 64 45 0.0 0.0 0.00 0.00 0.00 60 1012.9
20260503194505 64 202 1.0 1.0 0.00 0.00 0.00 62 1012.9
20260503194005 64 180 1.0 0.0 0.00 0.00 0.00 61 1012.9
20260503193607 64 225 2.0 3.0 0.00 0.00 0.00 61 1012.9
20260503193005 64 315 3.0 4.0 0.00 0.00 0.00 63 1012.9
20260503192505 64 248 1.0 1.0 0.00 0.00 0.00 63 1013.9
20260503192005 64 270 2.0 2.0 0.00 0.00 0.00 62 1013.9
20260503191607 64 225 2.0 1.0 0.00 0.00 0.00 62 1013.9
20260503191505 64 202 2.0 0.0 0.00 0.00 0.00 62 1013.9
20260503191006 63 270 0.0 3.0 0.00 0.00 0.00 62 1012.9
20260503190505 63 22 1.0 0.0 0.00 0.00 0.00 63 1012.9
20260503190005 63 180 0.0 2.0 0.00 0.00 0.00 63 1012.9
20260503185607 63 158 1.0 2.0 0.00 0.00 0.00 63 1013.9
20260503185005 63 158 1.0 0.0 0.00 0.00 0.00 63 1013.9
20260503184505 63 202 0.0 2.0 0.00 0.00 0.00 64 1013.9
20260503184005 63 270 0.0 0.0 0.00 0.00 0.00 65 1013.9
20260503183607 63 270 2.0 6.0 0.00 0.00 0.00 64 1013.9
20260503183005 63 270 3.0 1.0 0.00 0.00 0.00 64 1013.9
20260503182506 62 292 0.0 2.0 0.00 0.00 0.00 65 1012.9
20260503182006 62 180 2.0 6.0 0.00 0.00 0.00 66 1012.9
20260503181607 62 158 0.0 3.0 0.00 0.00 0.00 66 1012.9
20260503181506 62 112 1.0 1.0 0.00 0.00 0.00 66 1012.9
20260503180505 62 270 1.0 1.0 0.00 0.00 0.00 66 1013.9
20260503180005 61 315 2.0 1.0 0.00 0.00 0.00 67 1013.9
20260503175607 61 158 1.0 0.0 0.00 0.00 0.00 68 1013.9
20260503175505 61 225 0.0 2.0 0.00 0.00 0.00 67 1013.9
20260503175005 60 225 0.0 0.0 0.00 0.00 0.00 70 1013.9
20260503174505 60 68 0.0 0.0 0.00 0.00 0.00 70 1013.9
20260503174005 60 292 0.0 2.0 0.00 0.00 0.00 71 1013.9
20260503173607 60 22 0.0 0.0 0.00 0.00 0.00 72 1013.9
20260503173005 59 270 0.0 1.0 0.00 0.00 0.00 73 1013.9
20260503172505 59 68 0.0 0.0 0.00 0.00 0.00 73 1013.9
20260503171608 59 180 0.0 0.0 0.00 0.00 0.00 75 1013.9
20260503170900 58 248 0.0 0.0 0.00 0.00 0.00 75 1013.9
20260503170758 58 225 0.0 0.0 0.00 0.00 0.00 76 1013.9
20260503170258 58 315 0.0 0.0 0.00 0.00 0.00 76 1013.9
20260503150902 56 158 0.0 0.0 0.00 0.00 0.00 83 1012.9
20260503150758 56 135 0.0 0.0 0.00 0.00 0.00 83 1012.9
20260503150258 56 135 0.0 0.0 0.00 0.00 0.00 83 1012.9
20260503140258 56 90 0.0 0.0 0.00 0.00 0.00 82 1011.9
20260503131258 56 68 0.0 0.0 0.00 0.00 0.00 82 1011.9
20260503130859 56 68 0.0 0.0 0.00 0.00 0.00 82 1011.9
20260503130758 56 68 0.0 0.0 0.00 0.00 0.00 82 1011.9
20260503130258 56 68 0.0 0.0 0.00 0.00 0.00 81 1011.9
20260503110758 56 248 0.0 0.0 0.00 0.00 0.00 79 1011.9
20260503110258 56 315 0.0 0.0 0.00 0.00 0.00 79 1011.9
20260503100258 56 68 0.0 0.0 0.00 0.00 0.00 78 1011.9
20260503090258 56 270 0.0 0.0 0.00 0.00 0.00 78 1011.9
20260503081258 56 112 0.0 0.0 0.00 0.00 0.00 77 1011.9
20260503080859 56 248 0.0 0.0 0.00 0.00 0.00 77 1011.9
20260503080758 56 248 0.0 0.0 0.00 0.00 0.00 77 1011.9
20260503080258 56 202 0.0 0.0 0.00 0.00 0.00 77 1011.9
20260503072900 56 202 0.0 0.0 0.00 0.00 0.00 77 1012.9
20260503072758 56 158 0.0 0.0 0.00 0.00 0.00 77 1012.9
20260503072258 56 270 0.0 0.0 0.00 0.00 0.00 77 1012.9
20260503071758 56 270 0.0 0.0 0.00 0.00 0.00 76 1012.9
20260503071258 56 270 0.0 0.0 0.00 0.00 0.00 77 1012.9
20260503070900 56 270 0.0 0.0 0.00 0.00 0.00 76 1012.9
20260503070758 56 270 0.0 0.0 0.00 0.00 0.00 76 1012.9
20260503070258 56 270 0.0 0.0 0.00 0.00 0.00 76 1012.9
20260503054900 56 270 0.0 0.0 0.00 0.01 0.01 77 1012.9
20260503054758 56 270 0.0 0.0 0.00 0.01 0.01 77 1012.9
20260503054258 56 270 0.0 0.0 0.00 0.01 0.01 76 1012.9
20260503053758 56 270 0.0 2.0 0.00 0.01 0.01 76 1012.9
20260503053258 56 292 0.0 0.0 0.00 0.01 0.01 76 1012.9
20260503052900 56 270 0.0 0.0 0.00 0.01 0.01 76 1012.9
20260503051758 56 248 0.0 0.0 0.00 0.01 0.01 76 1012.9
20260503051258 56 292 0.0 0.0 0.00 0.01 0.01 77 1012.9
20260503050900 56 315 0.0 0.0 0.00 0.01 0.01 76 1012.9
20260503050758 56 315 1.0 0.0 0.00 0.01 0.01 76 1012.9
20260503050258 56 270 0.0 0.0 0.00 0.01 0.01 77 1012.9
20260503045758 56 270 0.0 0.0 0.00 0.01 0.01 77 1012.9
20260503045258 57 270 1.0 0.0 0.00 0.01 0.01 77 1012.9
20260503044859 57 270 0.0 0.0 0.00 0.01 0.01 77 1012.9
20260503044758 57 270 0.0 0.0 0.00 0.01 0.01 77 1012.9
20260503043758 57 270 2.0 0.0 0.00 0.01 0.01 77 1012.9
20260503043258 57 315 0.0 0.0 0.00 0.01 0.01 76 1012.9
20260503032559 58 292 0.0 0.0 0.00 0.01 0.01 74 1010.8
20260503032100 58 292 0.0 0.0 0.00 0.01 0.01 74 1010.8
20260503031600 58 292 0.0 0.0 0.00 0.01 0.01 73 1010.8
20260503031202 58 292 0.0 0.0 0.00 0.01 0.01 73 1010.8
20260503030600 58 292 0.0 0.0 0.00 0.01 0.01 73 1010.8
20260503030100 58 292 0.0 0.0 0.00 0.01 0.01 73 1010.8
20260503025600 58 292 0.0 0.0 0.00 0.01 0.01 72 1010.8
20260503025201 58 292 0.0 0.0 0.00 0.01 0.01 72 1010.8
20260503025059 58 315 4.0 4.0 0.00 0.01 0.01 72 1010.8
20260503024600 59 315 4.0 4.0 0.00 0.01 0.01 71 1010.8
20260503024100 59 315 4.0 4.0 0.00 0.01 0.01 71 1010.8
20260503023600 59 315 4.0 4.0 0.00 0.01 0.01 71 1010.8
20260503023202 59 315 4.0 4.0 0.00 0.01 0.01 70 1010.8
20260503023100 59 315 4.0 4.0 0.00 0.01 0.01 70 1010.8
20260503022100 59 315 4.0 4.0 0.00 0.01 0.01 70 1010.8
20260503021600 60 315 4.0 4.0 0.00 0.01 0.01 70 1010.8
20260503021202 60 315 4.0 4.0 0.00 0.01 0.01 69 1010.8
20260503021100 60 315 4.0 4.0 0.00 0.01 0.01 69 1010.8
20260503020600 60 315 4.0 4.0 0.00 0.01 0.01 70 1010.8
20260503020100 60 315 4.0 4.0 0.00 0.01 0.01 69 1010.8
20260503015559 60 315 4.0 4.0 0.00 0.01 0.01 69 1010.8
20260503015203 60 315 4.0 4.0 0.00 0.01 0.01 70 1010.8
20260503015100 60 315 4.0 4.0 0.00 0.01 0.01 69 1010.8
20260503014600 60 315 4.0 4.0 0.00 0.01 0.01 69 1010.8
20260503014100 60 315 4.0 4.0 0.00 0.01 0.01 69 1010.8
20260503013600 61 315 4.0 4.0 0.00 0.01 0.01 68 1010.8
20260503013202 61 315 4.0 4.0 0.00 0.01 0.01 68 1010.8
20260503013100 61 315 4.0 4.0 0.00 0.01 0.01 68 1010.8
20260503012600 61 315 4.0 4.0 0.00 0.01 0.01 67 1010.8
20260503012100 62 315 4.0 4.0 0.00 0.01 0.01 66 1010.8
20260503011559 62 315 4.0 4.0 0.00 0.01 0.01 66 1010.8
20260503011202 62 315 4.0 4.0 0.00 0.01 0.01 67 1010.8
20260503011100 62 315 4.0 4.0 0.00 0.01 0.01 67 1010.8
20260503010600 63 315 4.0 4.0 0.00 0.01 0.01 67 1010.8
20260503010100 63 315 4.0 4.0 0.00 0.01 0.01 67 1010.8
20260503005600 63 292 1.0 3.0 0.00 0.01 0.01 66 1011.9
20260503005202 63 315 3.0 6.0 0.00 0.01 0.01 66 1011.9
20260503005100 63 338 4.0 4.0 0.00 0.01 0.01 66 1011.9
20260503004600 64 315 2.0 3.0 0.00 0.01 0.01 66 1011.9
20260503003600 64 270 2.0 1.0 0.00 0.01 0.01 66 1011.9
20260503003201 64 292 3.0 4.0 0.00 0.01 0.01 66 1011.9
20260503003100 64 292 3.0 4.0 0.00 0.01 0.01 66 1011.9
20260503002559 64 270 2.0 0.0 0.00 0.01 0.01 66 1011.9
20260503002100 64 270 3.0 5.0 0.00 0.01 0.01 66 1011.9
20260503001600 64 270 1.0 0.0 0.00 0.01 0.01 65 1011.9
20260503001201 65 0 2.0 2.0 0.00 0.01 0.01 65 1011.9
20260503001100 65 270 2.0 2.0 0.00 0.01 0.01 65 1011.9
20260503000559 65 248 4.0 6.0 0.00 0.01 0.01 64 1011.9
20260503000100 65 270 2.0 4.0 0.00 0.01 0.01 64 1011.9
20260502235600 66 270 2.0 1.0 0.00 0.01 0.01 64 1011.9
20260502235203 66 270 4.0 5.0 0.00 0.01 0.01 64 1011.9
20260502235100 66 270 0.0 5.0 0.00 0.01 0.01 64 1011.9
20260502234559 66 248 0.0 0.0 0.00 0.01 0.01 64 1011.9
20260502234100 66 338 0.0 0.0 0.00 0.01 0.01 65 1011.9
20260502233559 66 270 0.0 0.0 0.00 0.01 0.01 65 1011.9
20260502233203 66 112 0.0 1.0 0.00 0.01 0.01 66 1011.9
20260502233100 66 68 0.0 0.0 0.00 0.01 0.01 66 1011.9
20260502232600 66 292 0.0 3.0 0.00 0.01 0.01 66 1011.9
20260502232100 65 248 1.0 0.0 0.00 0.01 0.01 66 1011.9
20260502231600 65 202 0.0 0.0 0.00 0.01 0.01 67 1011.9
20260502231201 65 315 0.0 0.0 0.00 0.01 0.01 67 1011.9
20260502231100 65 135 0.0 0.0 0.00 0.01 0.01 67 1011.9
20260502230600 65 248 0.0 0.0 0.00 0.01 0.01 68 1011.9
20260502230100 65 90 0.0 0.0 0.00 0.01 0.01 67 1011.9
20260502225600 65 0 0.0 0.0 0.00 0.01 0.01 67 1011.9
20260502225202 65 225 0.0 0.0 0.00 0.01 0.01 65 1011.9
20260502225100 65 270 0.0 0.0 0.00 0.01 0.01 66 1011.9
20260502224100 65 180 0.0 0.0 0.00 0.01 0.01 67 1012.9
20260502223559 65 315 0.0 0.0 0.00 0.01 0.01 67 1012.9
20260502223201 65 292 0.0 0.0 0.00 0.01 0.01 66 1012.9
20260502223100 65 225 0.0 0.0 0.00 0.01 0.01 66 1012.9
20260502222600 65 225 1.0 0.0 0.00 0.01 0.01 67 1012.9
20260502222100 65 180 0.0 0.0 0.00 0.01 0.01 66 1012.9
20260502221600 65 135 0.0 0.0 0.00 0.01 0.01 67 1012.9
20260502221201 65 180 0.0 1.0 0.00 0.01 0.01 67 1012.9
20260502220600 65 270 0.0 0.0 0.00 0.01 0.01 67 1012.9
20260502220100 65 315 0.0 0.0 0.00 0.01 0.01 67 1012.9
20260502215559 65 248 0.0 0.0 0.00 0.01 0.01 67 1012.9
20260502215201 65 90 0.0 0.0 0.00 0.01 0.01 67 1012.9
20260502215059 65 225 0.0 0.0 0.00 0.01 0.01 67 1012.9
20260502214559 65 202 0.0 0.0 0.00 0.01 0.01 67 1012.9
20260502214100 65 0 2.0 0.0 0.00 0.01 0.01 67 1012.9
20260502213600 64 112 0.0 1.0 0.00 0.01 0.01 67 1012.9
20260502213202 64 158 0.0 0.0 0.00 0.01 0.01 67 1012.9
20260502212600 64 22 0.0 0.0 0.00 0.01 0.01 67 1012.9
20260502212100 64 90 0.0 0.0 0.00 0.01 0.01 67 1012.9
20260502211559 64 248 0.0 0.0 0.00 0.01 0.01 67 1012.9
20260502211202 64 202 0.0 0.0 0.00 0.01 0.01 67 1013.9
20260502211100 64 225 1.0 0.0 0.00 0.01 0.01 66 1013.9